Find HEAD-1

NORAD ID: 43011 Int'l Des: 2017-072 Owner: HEAD Country: CN operational
LEOCIRCULARRETROGRADESSO

实时位置

正在加载3D地球...

关于 HEAD-1

正在加载描述...

即将过境

Passes for default location (London). Set your location on the main map for personalized predictions.

高度历史

Loading altitude history...

两行轨道根数

1 43011U 17072B 26132.31434207 .00000409 00000-0 18102-3 0 9992
2 43011 98.9574 149.8616 0008767 257.5108 102.5092 14.28775188442239
Epoch: May 12, 2026 • Age: 5 hours

当前状态

高度 813.2 km
速度 7.45 km/s
星下点 -56.06°S, 108.44°E
发射日期 Nov 14, 2017
运行时间 8.4 years
类型 other

技术详情

分类 Payload
质量 45.00 kg
干质量 45.00 kg
总质量 45.00 kg
长度 0.50 m
直径 0.20 m
跨度 2.00 m
形状 Box + 2 Pan
制造商 LIZH/SAST
平台类型 HEAD-1
阶段状态 In Orbit
所有者/国家 HEAD/CN

Most Searched